sat.trackr.live / text

‹ back to catalog

STARLINK-33641

NORAD 63718 · 2025-087X

PAYLOAD ACTIVE UNKNOWN

§ Identity

Operator
Country
US
Launch date
2025-04-28
Launch site
AFWTR
Launch vehicle
Mass (kg)
RCS (m²)

Purposes: comms

External: N2YO · Heavens-Above · Gunter

§ Orbital elements

Epoch: 2026-05-24T22:01:39.575424Z

Period
94.01 min
Inclination
53.1570°
Eccentricity
0.0001012
Mean motion
15.31713328 rev/d
Perigee alt
470.0 km
Apogee alt
471.4 km
Semi-major
6,848.8 km
B*
-2.8050e-4
RAAN
225.2550°
Arg perigee
73.7872°
Mean anomaly
286.3241°
Rev number
6,087

§ Raw data

STARLINK-336411 63718U 25087X   26144.91781916 -.00009062  00000+0 -28050-3 0  99922 63718  53.1570 225.2550 0001012  73.7872 286.3241 15.31713328 60878

JSON: /api/v1/satellites/63718 · /tle

For live sub-satellite position, see the globe view (requires WebGL).

§ Visibility from observer

Set your observer location to see the next 7 days of passes ≥ 10°. The values pass through the URL so the page stays shareable.

No JS? Fill the form by hand. The geolocation button needs JavaScript.